| time (UTC) | temp C | wind direction | speed KPH | gust KPH | rain 1hr cm | rain 24hr cm | rain mn cm | humidity % | barometer mb |
| 20260503235713 | 23 | 227 | 14.5 | 22.5 | 0.00 | 0.00 | 0.00 | 74 | 1017.0 |
| 20260503235209 | 23 | 198 | 12.9 | 25.7 | 0.00 | 0.00 | 0.00 | 74 | 1016.9 |
| 20260503234707 | 23 | 204 | 11.3 | 19.3 | 0.00 | 0.00 | 0.00 | 74 | 1016.9 |
| 20260503234205 | 23 | 195 | 14.5 | 22.5 | 0.00 | 0.00 | 0.00 | 74 | 1017.1 |
| 20260503233702 | 23 | 205 | 9.7 | 24.1 | 0.00 | 0.00 | 0.00 | 74 | 1017.1 |
| 20260503233157 | 23 | 202 | 11.3 | 22.5 | 0.00 | 0.00 | 0.00 | 74 | 1017.0 |
| 20260503232654 | 23 | 198 | 9.7 | 25.7 | 0.00 | 0.00 | 0.00 | 74 | 1017.3 |
| 20260503232151 | 23 | 191 | 14.5 | 19.3 | 0.00 | 0.00 | 0.00 | 74 | 1017.3 |
| 20260503231650 | 23 | 203 | 9.7 | 22.5 | 0.00 | 0.00 | 0.00 | 74 | 1017.4 |
| 20260503231145 | 24 | 196 | 9.7 | 25.7 | 0.00 | 0.00 | 0.00 | 74 | 1017.4 |
| 20260503230642 | 24 | 254 | 14.5 | 14.5 | 0.00 | 0.00 | 0.00 | 75 | 1017.5 |
| 20260503230140 | 24 | 267 | 4.8 | 22.5 | 0.00 | 0.00 | 0.00 | 75 | 1017.4 |
| 20260503225637 | 24 | 249 | 12.9 | 27.4 | 0.00 | 0.00 | 0.00 | 75 | 1017.6 |
| 20260503225137 | 24 | 222 | 20.9 | 27.4 | 0.00 | 0.00 | 0.00 | 74 | 1017.5 |
| 20260503224634 | 23 | 207 | 11.3 | 22.5 | 0.00 | 0.00 | 0.00 | 74 | 1017.5 |
| 20260503224132 | 23 | 203 | 17.7 | 25.7 | 0.00 | 0.00 | 0.00 | 74 | 1017.7 |
| 20260503223630 | 24 | 228 | 14.5 | 20.9 | 0.00 | 0.00 | 0.00 | 74 | 1017.8 |
| 20260503223126 | 23 | 200 | 11.3 | 22.5 | 0.00 | 0.00 | 0.00 | 74 | 1017.8 |
| 20260503222623 | 24 | 165 | 6.4 | 20.9 | 0.00 | 0.00 | 0.00 | 74 | 1017.8 |
| 20260503222121 | 23 | 205 | 17.7 | 29.0 | 0.00 | 0.00 | 0.00 | 74 | 1017.8 |
| 20260503221619 | 24 | 198 | 17.7 | 25.7 | 0.00 | 0.00 | 0.00 | 74 | 1018.0 |
| 20260503221116 | 23 | 207 | 16.1 | 27.4 | 0.00 | 0.00 | 0.00 | 74 | 1018.0 |
| 20260503220613 | 23 | 214 | 16.1 | 24.1 | 0.00 | 0.00 | 0.00 | 74 | 1018.0 |
| 20260503220110 | 23 | 210 | 16.1 | 29.0 | 0.00 | 0.00 | 0.00 | 74 | 1018.2 |
| 20260503215607 | 23 | 146 | 3.2 | 19.3 | 0.00 | 0.00 | 0.00 | 74 | 1018.1 |
| 20260503215103 | 23 | 180 | 9.7 | 14.5 | 0.00 | 0.00 | 0.00 | 74 | 1018.2 |
| 20260503214602 | 23 | 206 | 1.6 | 20.9 | 0.00 | 0.00 | 0.00 | 74 | 1018.4 |
| 20260503214058 | 23 | 225 | 17.7 | 24.1 | 0.00 | 0.00 | 0.00 | 74 | 1018.6 |
| 20260503213557 | 23 | 231 | 20.9 | 22.5 | 0.00 | 0.00 | 0.00 | 74 | 1018.4 |
| 20260503213053 | 23 | 220 | 0.0 | 25.7 | 0.00 | 0.00 | 0.00 | 74 | 1018.3 |
| 20260503212550 | 23 | 209 | 4.8 | 19.3 | 0.00 | 0.00 | 0.00 | 74 | 1018.5 |
| 20260503212047 | 23 | 234 | 16.1 | 35.4 | 0.00 | 0.00 | 0.00 | 74 | 1018.4 |
| 20260503211545 | 23 | 250 | 11.3 | 20.9 | 0.00 | 0.00 | 0.00 | 74 | 1018.4 |
| 20260503211040 | 23 | 197 | 3.2 | 24.1 | 0.00 | 0.00 | 0.00 | 74 | 1018.8 |
| 20260503210537 | 23 | 224 | 14.5 | 20.9 | 0.00 | 0.00 | 0.00 | 74 | 1018.8 |
| 20260503210033 | 23 | 249 | 14.5 | 25.7 | 0.00 | 0.00 | 0.00 | 74 | 1018.7 |
| 20260503205530 | 23 | 192 | 0.0 | 29.0 | 0.00 | 0.00 | 0.00 | 74 | 1019.1 |
| 20260503205026 | 22 | 196 | 6.4 | 32.2 | 0.00 | 0.00 | 0.00 | 74 | 1019.2 |
| 20260503204523 | 23 | 294 | 4.8 | 25.7 | 0.00 | 0.00 | 0.00 | 74 | 1019.3 |
| 20260503204020 | 22 | 215 | 14.5 | 29.0 | 0.00 | 0.00 | 0.00 | 74 | 1019.5 |
| 20260503203517 | 22 | 194 | 6.4 | 20.9 | 0.00 | 0.00 | 0.00 | 74 | 1019.5 |
| 20260503203014 | 22 | 206 | 11.3 | 22.5 | 0.00 | 0.00 | 0.00 | 74 | 1019.8 |
| 20260503202512 | 22 | 253 | 4.8 | 24.1 | 0.00 | 0.00 | 0.00 | 74 | 1019.9 |
| 20260503202010 | 22 | 206 | 4.8 | 19.3 | 0.00 | 0.00 | 0.00 | 74 | 1019.9 |
| 20260503201508 | 22 | 264 | 11.3 | 32.2 | 0.00 | 0.00 | 0.00 | 74 | 1020.4 |
| 20260503201005 | 22 | 210 | 16.1 | 32.2 | 0.00 | 0.00 | 0.00 | 74 | 1020.4 |
| 20260503200501 | 22 | 227 | 17.7 | 22.5 | 0.00 | 0.00 | 0.00 | 74 | 1020.5 |
| 20260503195957 | 22 | 223 | 12.9 | 29.0 | 0.00 | 0.00 | 0.00 | 74 | 1020.3 |
| 20260503195455 | 22 | 235 | 9.7 | 20.9 | 0.00 | 0.00 | 0.00 | 74 | 1020.5 |
| 20260503194951 | 22 | 240 | 8.0 | 19.3 | 0.00 | 0.00 | 0.00 | 74 | 1020.5 |
| 20260503194449 | 21 | 244 | 11.3 | 20.9 | 0.00 | 0.00 | 0.00 | 74 | 1020.7 |
| 20260503193944 | 21 | 221 | 11.3 | 37.0 | 0.00 | 0.00 | 0.00 | 74 | 1020.7 |
| 20260503193439 | 21 | 231 | 8.0 | 22.5 | 0.00 | 0.00 | 0.00 | 74 | 1020.8 |
| 20260503192935 | 21 | 238 | 19.3 | 38.6 | 0.00 | 0.00 | 0.00 | 74 | 1020.9 |
| 20260503192432 | 21 | 277 | 8.0 | 32.2 | 0.00 | 0.00 | 0.00 | 74 | 1021.1 |
| 20260503191927 | 21 | 232 | 14.5 | 24.1 | 0.00 | 0.00 | 0.00 | 74 | 1021.1 |
| 20260503191425 | 21 | 256 | 17.7 | 25.7 | 0.00 | 0.00 | 0.00 | 74 | 1021.2 |
| 20260503190921 | 21 | 215 | 11.3 | 24.1 | 0.00 | 0.00 | 0.00 | 74 | 1021.3 |
| 20260503190419 | 21 | 243 | 4.8 | 19.3 | 0.00 | 0.00 | 0.00 | 74 | 1021.4 |
| 20260503185915 | 21 | 205 | 16.1 | 20.9 | 0.00 | 0.00 | 0.00 | 74 | 1021.5 |
| 20260503185412 | 21 | 257 | 6.4 | 16.1 | 0.00 | 0.00 | 0.00 | 74 | 1021.6 |
| 20260503184911 | 21 | 210 | 19.3 | 27.4 | 0.00 | 0.00 | 0.00 | 74 | 1021.4 |
| 20260503184408 | 21 | 235 | 8.0 | 20.9 | 0.00 | 0.00 | 0.00 | 74 | 1021.5 |
| 20260503183904 | 21 | 229 | 9.7 | 20.9 | 0.00 | 0.00 | 0.00 | 74 | 1021.7 |
| 20260503183401 | 20 | 229 | 4.8 | 20.9 | 0.00 | 0.00 | 0.00 | 74 | 1022.0 |
| 20260503182858 | 21 | 192 | 9.7 | 17.7 | 0.00 | 0.00 | 0.00 | 74 | 1021.6 |
| 20260503182357 | 20 | 202 | 9.7 | 16.1 | 0.00 | 0.00 | 0.00 | 74 | 1022.0 |
| 20260503181853 | 20 | 226 | 11.3 | 19.3 | 0.00 | 0.00 | 0.00 | 74 | 1021.9 |
| 20260503181351 | 20 | 157 | 8.0 | 22.5 | 0.00 | 0.00 | 0.00 | 74 | 1022.2 |
| 20260503180847 | 21 | 244 | 9.7 | 17.7 | 0.00 | 0.00 | 0.00 | 74 | 1022.0 |
| 20260503180345 | 20 | 219 | 9.7 | 14.5 | 0.00 | 0.00 | 0.00 | 74 | 1022.4 |
| 20260503175842 | 20 | 220 | 17.7 | 29.0 | 0.00 | 0.00 | 0.00 | 74 | 1022.5 |
| 20260503175340 | 20 | 225 | 9.7 | 19.3 | 0.00 | 0.00 | 0.00 | 74 | 1022.6 |
| 20260503174835 | 20 | 222 | 9.7 | 24.1 | 0.00 | 0.00 | 0.00 | 74 | 1022.5 |
| 20260503174333 | 20 | 225 | 27.4 | 27.4 | 0.00 | 0.00 | 0.00 | 73 | 1022.6 |
| 20260503173828 | 19 | 238 | 12.9 | 19.3 | 0.00 | 0.00 | 0.00 | 73 | 1022.8 |
| 20260503173325 | 19 | 201 | 12.9 | 19.3 | 0.00 | 0.00 | 0.00 | 73 | 1022.7 |
| 20260503172822 | 20 | 270 | 0.0 | 20.9 | 0.00 | 0.00 | 0.00 | 73 | 1022.9 |
| 20260503172320 | 20 | 220 | 19.3 | 20.9 | 0.00 | 0.00 | 0.00 | 73 | 1023.0 |
| 20260503171815 | 18 | 207 | 11.3 | 24.1 | 0.00 | 0.00 | 0.00 | 73 | 1023.0 |
| 20260503171312 | 19 | 190 | 3.2 | 17.7 | 0.00 | 0.00 | 0.00 | 73 | 1023.3 |
| 20260503170809 | 18 | 201 | 8.0 | 17.7 | 0.00 | 0.00 | 0.00 | 73 | 1023.4 |
| 20260503170306 | 18 | 231 | 9.7 | 22.5 | 0.00 | 0.00 | 0.00 | 73 | 1023.4 |
| 20260503150658 | 15 | 198 | 4.8 | 29.0 | 0.00 | 0.00 | 0.00 | 73 | 1024.6 |
| 20260503150154 | 15 | 202 | 4.8 | 30.6 | 0.00 | 0.00 | 0.00 | 73 | 1024.5 |
| 20260503140119 | 12 | 211 | 8.0 | 19.3 | 0.00 | 0.00 | 0.00 | 72 | 1024.8 |
| 20260503131048 | 10 | 194 | 12.9 | 22.5 | 0.00 | 0.00 | 0.00 | 72 | 1025.0 |
| 20260503130545 | 10 | 217 | 4.8 | 17.7 | 0.00 | 0.00 | 0.00 | 72 | 1024.9 |
| 20260503110436 | 7 | 164 | 4.8 | 11.3 | 0.00 | 0.00 | 0.00 | 71 | 1023.8 |
| 20260503090321 | 7 | 153 | 4.8 | 6.4 | 0.00 | 0.00 | 0.00 | 71 | 1024.6 |
| 20260503081248 | 7 | 156 | 0.0 | 8.0 | 0.00 | 0.00 | 0.00 | 71 | 1024.7 |
| 20260503080744 | 7 | 133 | 4.8 | 6.4 | 0.00 | 0.00 | 0.00 | 71 | 1024.8 |
| 20260503080242 | 7 | 180 | 3.2 | 6.4 | 0.00 | 0.00 | 0.00 | 71 | 1024.7 |
| 20260503072718 | 6 | 124 | 8.0 | 11.3 | 0.00 | 0.00 | 0.00 | 71 | 1024.6 |
| 20260503072215 | 6 | 110 | 6.4 | 8.0 | 0.00 | 0.00 | 0.00 | 71 | 1024.6 |
| 20260503071712 | 6 | 277 | 0.0 | 3.2 | 0.00 | 0.00 | 0.00 | 71 | 1024.7 |
| 20260503071209 | 6 | 287 | 0.0 | 3.2 | 0.00 | 0.00 | 0.00 | 71 | 1024.6 |
| 20260503070705 | 6 | 239 | 4.8 | 4.8 | 0.00 | 0.00 | 0.00 | 71 | 1024.7 |
| 20260503070204 | 6 | 233 | 0.0 | 4.8 | 0.00 | 0.00 | 0.00 | 71 | 1024.7 |
| 20260503060127 | 7 | 252 | 3.2 | 3.2 | 0.00 | 0.00 | 0.00 | 71 | 1024.8 |
| 20260503055119 | 6 | 259 | 4.8 | 4.8 | 0.00 | 0.00 | 0.00 | 71 | 1025.0 |
| 20260503054615 | 6 | 285 | 1.6 | 1.6 | 0.00 | 0.00 | 0.00 | 71 | 1024.8 |
| 20260503054112 | 6 | 254 | 0.0 | 0.0 | 0.00 | 0.00 | 0.00 | 71 | 1025.0 |
| 20260503053610 | 7 | 254 | 0.0 | 1.6 | 0.00 | 0.00 | 0.00 | 71 | 1024.9 |
| 20260503053108 | 8 | 195 | 0.0 | 0.0 | 0.00 | 0.00 | 0.00 | 71 | 1025.0 |
| 20260503052604 | 7 | 192 | 1.6 | 4.8 | 0.00 | 0.00 | 0.00 | 71 | 1024.6 |
| 20260503052101 | 7 | 197 | 3.2 | 3.2 | 0.00 | 0.00 | 0.00 | 71 | 1024.9 |
| 20260503051556 | 7 | 192 | 1.6 | 3.2 | 0.00 | 0.00 | 0.00 | 71 | 1024.6 |
| 20260503051054 | 8 | 194 | 0.0 | 1.6 | 0.00 | 0.00 | 0.00 | 71 | 1024.8 |
| 20260503050550 | 8 | 188 | 0.0 | 1.6 | 0.00 | 0.00 | 0.00 | 71 | 1024.6 |
| 20260503050047 | 8 | 188 | 0.0 | 0.0 | 0.00 | 0.00 | 0.00 | 71 | 1024.6 |
| 20260503045544 | 8 | 188 | 0.0 | 1.6 | 0.00 | 0.00 | 0.00 | 71 | 1024.5 |
| 20260503045041 | 8 | 240 | 0.0 | 1.6 | 0.00 | 0.00 | 0.00 | 71 | 1024.8 |
| 20260503044538 | 8 | 243 | 0.0 | 0.0 | 0.00 | 0.00 | 0.00 | 71 | 1024.7 |
| 20260503044036 | 9 | 254 | 0.0 | 3.2 | 0.00 | 0.00 | 0.00 | 71 | 1024.5 |
| 20260503043532 | 9 | 237 | 1.6 | 3.2 | 0.00 | 0.00 | 0.00 | 71 | 1024.5 |
| 20260503043028 | 8 | 237 | 1.6 | 3.2 | 0.00 | 0.00 | 0.00 | 71 | 1024.5 |
| 20260503042526 | 8 | 263 | 0.0 | 3.2 | 0.00 | 0.00 | 0.00 | 71 | 1024.4 |
| 20260503042021 | 9 | 270 | 0.0 | 3.2 | 0.00 | 0.00 | 0.00 | 71 | 1024.6 |
| 20260503041519 | 8 | 303 | 0.0 | 1.6 | 0.00 | 0.00 | 0.00 | 71 | 1024.4 |
| 20260503041016 | 8 | 75 | 0.0 | 0.0 | 0.00 | 0.00 | 0.00 | 71 | 1024.5 |
| 20260503040514 | 8 | 99 | 0.0 | 1.6 | 0.00 | 0.00 | 0.00 | 71 | 1024.3 |
| 20260503040011 | 8 | 257 | 1.6 | 3.2 | 0.00 | 0.00 | 0.00 | 71 | 1024.5 |
| 20260503035507 | 8 | 234 | 0.0 | 1.6 | 0.00 | 0.00 | 0.00 | 71 | 1024.5 |
| 20260503035005 | 9 | 15 | 0.0 | 0.0 | 0.00 | 0.00 | 0.00 | 71 | 1024.3 |
| 20260503034502 | 9 | 15 | 0.0 | 0.0 | 0.00 | 0.00 | 0.00 | 71 | 1024.4 |
| 20260503033959 | 10 | 8 | 0.0 | 1.6 | 0.00 | 0.00 | 0.00 | 72 | 1024.6 |
| 20260503033456 | 9 | 279 | 0.0 | 0.0 | 0.00 | 0.00 | 0.00 | 71 | 1024.5 |
| 20260503032954 | 10 | 279 | 0.0 | 0.0 | 0.00 | 0.00 | 0.00 | 72 | 1024.5 |
| 20260503032452 | 10 | 279 | 0.0 | 0.0 | 0.00 | 0.00 | 0.00 | 72 | 1024.5 |
| 20260503031950 | 10 | 279 | 0.0 | 0.0 | 0.00 | 0.00 | 0.00 | 72 | 1024.5 |
| 20260503031448 | 10 | 279 | 0.0 | 0.0 | 0.00 | 0.00 | 0.00 | 72 | 1024.4 |
| 20260503030944 | 10 | 279 | 0.0 | 0.0 | 0.00 | 0.00 | 0.00 | 72 | 1024.4 |
| 20260503030440 | 10 | 279 | 0.0 | 0.0 | 0.00 | 0.00 | 0.00 | 72 | 1024.4 |
| 20260503025937 | 11 | 283 | 0.0 | 1.6 | 0.00 | 0.00 | 0.00 | 72 | 1024.2 |
| 20260503025434 | 10 | 285 | 1.6 | 1.6 | 0.00 | 0.00 | 0.00 | 72 | 1024.3 |
| 20260503024932 | 11 | 279 | 0.0 | 3.2 | 0.00 | 0.00 | 0.00 | 72 | 1024.3 |
| 20260503024428 | 11 | 345 | 0.0 | 3.2 | 0.00 | 0.00 | 0.00 | 72 | 1024.1 |
| 20260503023925 | 11 | 7 | 0.0 | 1.6 | 0.00 | 0.00 | 0.00 | 72 | 1024.1 |
| 20260503023422 | 11 | 8 | 0.0 | 1.6 | 0.00 | 0.00 | 0.00 | 72 | 1024.1 |
| 20260503022919 | 11 | 6 | 1.6 | 3.2 | 0.00 | 0.00 | 0.00 | 72 | 1023.9 |
| 20260503022414 | 11 | 20 | 0.0 | 3.2 | 0.00 | 0.00 | 0.00 | 72 | 1024.1 |
| 20260503021910 | 12 | 349 | 0.0 | 6.4 | 0.00 | 0.00 | 0.00 | 72 | 1024.0 |
| 20260503021406 | 12 | 29 | 0.0 | 3.2 | 0.00 | 0.00 | 0.00 | 72 | 1024.0 |
| 20260503020904 | 12 | 26 | 0.0 | 3.2 | 0.00 | 0.00 | 0.00 | 72 | 1023.7 |
| 20260503020402 | 11 | 0 | 0.0 | 3.2 | 0.00 | 0.00 | 0.00 | 72 | 1024.0 |
| 20260503015857 | 11 | 246 | 0.0 | 3.2 | 0.00 | 0.00 | 0.00 | 72 | 1023.7 |
| 20260503015355 | 12 | 261 | 0.0 | 0.0 | 0.00 | 0.00 | 0.00 | 72 | 1023.6 |
| 20260503014850 | 12 | 11 | 0.0 | 1.6 | 0.00 | 0.00 | 0.00 | 72 | 1023.6 |
| 20260503014348 | 13 | 352 | 0.0 | 1.6 | 0.00 | 0.00 | 0.00 | 72 | 1023.6 |
| 20260503013846 | 13 | 7 | 1.6 | 3.2 | 0.00 | 0.00 | 0.00 | 72 | 1023.6 |
| 20260503013343 | 13 | 8 | 0.0 | 3.2 | 0.00 | 0.00 | 0.00 | 72 | 1023.7 |
| 20260503012839 | 13 | 11 | 1.6 | 3.2 | 0.00 | 0.00 | 0.00 | 72 | 1023.4 |
| 20260503012337 | 13 | 0 | 3.2 | 4.8 | 0.00 | 0.00 | 0.00 | 72 | 1023.4 |
| 20260503011834 | 13 | 18 | 1.6 | 4.8 | 0.00 | 0.00 | 0.00 | 72 | 1023.4 |
| 20260503011331 | 13 | 14 | 0.0 | 3.2 | 0.00 | 0.00 | 0.00 | 72 | 1023.3 |
| 20260503010827 | 14 | 45 | 3.2 | 4.8 | 0.00 | 0.00 | 0.00 | 72 | 1023.3 |
| 20260503010325 | 14 | 40 | 3.2 | 4.8 | 0.00 | 0.00 | 0.00 | 72 | 1023.1 |
| 20260503005821 | 15 | 350 | 0.0 | 4.8 | 0.00 | 0.00 | 0.00 | 72 | 1023.3 |
| 20260503005319 | 15 | 334 | 1.6 | 4.8 | 0.00 | 0.00 | 0.00 | 72 | 1023.3 |
| 20260503004815 | 15 | 21 | 0.0 | 6.4 | 0.00 | 0.00 | 0.00 | 73 | 1023.5 |
| 20260503004313 | 15 | 7 | 4.8 | 6.4 | 0.00 | 0.00 | 0.00 | 73 | 1023.2 |
| 20260503003810 | 15 | 60 | 0.0 | 8.0 | 0.00 | 0.00 | 0.00 | 73 | 1023.3 |
| 20260503003307 | 16 | 47 | 4.8 | 6.4 | 0.00 | 0.00 | 0.00 | 73 | 1023.3 |
| 20260503002804 | 16 | 20 | 4.8 | 8.0 | 0.00 | 0.00 | 0.00 | 73 | 1023.2 |
| 20260503002301 | 16 | 320 | 0.0 | 6.4 | 0.00 | 0.00 | 0.00 | 73 | 1023.2 |
| 20260503001757 | 16 | 315 | 4.8 | 6.4 | 0.00 | 0.00 | 0.00 | 73 | 1023.3 |
| 20260503001253 | 16 | 50 | 4.8 | 12.9 | 0.00 | 0.00 | 0.00 | 73 | 1023.0 |
| 20260503000751 | 16 | 43 | 8.0 | 11.3 | 0.00 | 0.00 | 0.00 | 73 | 1023.0 |
| 20260503000248 | 16 | 53 | 6.4 | 11.3 | 0.00 | 0.00 | 0.00 | 73 | 1023.0 |